Miscellaneous Local Product
Issued by NWS North Platte, NE

Home | Current Version | Previous Version | Graphics & Text | Print | Product List | Glossary On
Versions: 1 2 3 4 5 6 7 8 9 10 11 12 13 14 15 16 17 18 19 20 21 22 23 24 25 26 27 28 29 30 31 32 33 34 35 36 37 38 39 40 41 42 43 44 45 46 47 48 49 50
000
AXUS43 KLBF 280610
MISLBF


WESTERN AND NORTH CENTRAL NEBRASKA HOURLY WEATHER ROUNDUP
NATIONAL WEATHER SERVICE NORTH PLATTE NE
100 AM CDT TUE JUL 28 2015

***STATIONS NOT REPORTING VARIABLES SUCH AS SKY/WEATHER OR
PRESSURE ARE PROVIDED BY THE NEBRASKA DEPARTMENT OF
ROADS...RAWS...AND APRS NETWORKS...AND ARE NOT UNDER
NATIONAL WEATHER SERVICE QUALITY CONTROL***

...OBSERVATIONS IN AND NEAR THE EASTERN PANHANDLE OF NEBRASKA...

CITY           SKY/WX    TMP DP  RH WIND       PRES   REMARKS
PINE RIDGE     MOCLDY    63  59  87 SW5       29.79R
CHADRON        CLEAR     70  56  61 W17G26    29.83R
ALLIANCE       MOCLDY    66  59  78 W10       29.85R
SIDNEY         PTCLDY    76  51  41 NW18      29.85R
BIG SPRINGS      N/A     79  69  72 CALM        N/A
$$

...OBSERVATIONS IN NORTH CENTRAL NEBRASKA...

CITY           SKY/WX    TMP DP  RH WIND       PRES   REMARKS
VALENTINE      LGT RAIN  77  67  71 N17G28    29.73R
THEDFORD       CLOUDY    74  64  70 N9        29.80R
AINSWORTH      CLOUDY    81  71  71 S21G29    29.76R
O`NEILL        CLEAR     80  74  84 SE16G22   29.73F
ORD            CLEAR     80  70  71 SE14      29.73F
BROKEN BOW     CLEAR     82  67  60 S13G25    29.74S
SPRINGVIEW       N/A     82  73  75 S8          N/A
CHAMBERS         N/A     78  72  81 SE9         N/A
EWING            N/A     78  75  90 SE7G15      N/A
$$

...OBSERVATIONS IN SOUTHWEST NEBRASKA AND FAR NORTHEAST COLORADO...

CITY           SKY/WX    TMP DP  RH WIND       PRES   REMARKS
WRAY           FAIR      76  60  57 S8        29.77S
HOLYOKE        FAIR      73  68  83 NW6G22    29.79R
IMPERIAL       CLEAR     80  67  64 S14       29.75R
OGALLALA       PTCLDY    80  69  70 NW10G26   29.79R
NORTH PLATTE   CLEAR     80  67  64 S14       29.71S
MCCOOK         CLEAR     82  69  64 S17G28    29.73S
LEXINGTON      CLEAR     82  67  60 S18G30    29.75F
PAXTON           N/A     78  71  79 S12         N/A
BRADY            N/A     78  69  73 CALM        N/A
CALLAWAY         N/A     76  70  83 S13         N/A
$$

...NORTH PLATTE AREA...

CITY           SKY/WX    TMP DP  RH WIND       PRES   REMARKS
AIRPORT        CLEAR     80  67  64 S14       29.71S
DOWNTOWN         N/A     80  69  70 S8G16       N/A
HILLCREST        N/A     80  70  70 SE13G21     N/A
$$

...SOME WEATHER OBSERVATIONS FROM AROUND THE REGION...

CITY           SKY/WX    TMP DP  RH WIND       PRES   REMARKS
DENVER         PTCLDY    75  35  23 SW12      29.94R
LARAMIE        CLEAR     58  31  35 NW18G28   30.16R
CHEYENNE       CLEAR     66  34  30 NW25G39   30.04R
SCOTTSBLUFF    CLEAR     68  52  56 NW9       29.87R
RAPID CITY     PTCLDY    63  54  72 NW23G35   29.81R
PIERRE         LGT RAIN  68  65  90 S6G22     29.65S
WINNER         TSTM      67  64  90 NW31G38   29.79R VSB 1
SIOUX FALLS    LGT RAIN  75  70  84 S17G24    29.77F
OMAHA          MOCLDY    78  71  79 SE16      29.83F
GRAND ISLAND   CLEAR     80  67  64 S21G28    29.78F
KANSAS CITY    CLEAR     78  73  84 SE12      29.90S
WICHITA        CLEAR     83  69  62 S13       29.88S
HAYS           CLEAR     82  66  57 S22G28    29.81S
LIBERAL        CLEAR     82  64  54 S17G24    29.90R
GOODLAND       CLEAR     79  64  60 S20G26    29.81S
$$



USA.gov is the U.S. government's official web portal to all federal, state and local government web resources and services.